• In Hungary
  • List of Countries
  • For 7 days
  • Water Temperature
  • Satellite Maps
  • Weather Map
  • News
  • Weather Widgets
  • user-avatar
    Login

    Hourly Weather Vysoke Myto

    Today, 17 October, Tuesday

    Time Temperature Precipitation Wind Pressure Humidity
    00:00 +14°C° 0 mm 1 mps 743 mmHg 85%
    01:00 +13°C° 0 mm 1 mps 743 mmHg 84%
    02:00 +13°C° 0 mm 1 mps 743 mmHg 83%
    03:00 +13°C° 0 mm 1 mps 743 mmHg 83%
    04:00 +13°C° 0 mm 1 mps 743 mmHg 83%
    05:00 +13°C° 0 mm 1 mps 743 mmHg 82%
    06:00 +13°C° 0 mm 1 mps 743 mmHg 81%
    07:00 +13°C° 0 mm 1 mps 743 mmHg 81%
    08:00 +15°C° 0 mm 1 mps 743 mmHg 73%
    09:00 +18°C° 0 mm 1 mps 743 mmHg 66%
    10:00 +21°C° 0 mm 1 mps 743 mmHg 59%
    11:00 +22°C° 0 mm 1 mps 743 mmHg 56%
    12:00 +23°C° 0 mm 1 mps 743 mmHg 53%
    13:00 +24°C° 0 mm 2 mps 742 mmHg 50%
    14:00 +23°C° 0 mm 2 mps 742 mmHg 54%
    15:00 +21°C° 0 mm 2 mps 741 mmHg 59%
    16:00 +20°C° 0 mm 2 mps 741 mmHg 63%
    17:00 +19°C° 0 mm 2 mps 741 mmHg 68%
    18:00 +17°C° 0 mm 2 mps 740 mmHg 74%
    19:00 +15°C° 0 mm 2 mps 740 mmHg 79%
    20:00 +15°C° 0 mm 2 mps 740 mmHg 80%
    21:00 +14°C° 0 mm 2 mps 740 mmHg 82%
    22:00 +14°C° 0 mm 2 mps 740 mmHg 84%
    23:00 +14°C° 0 mm 2 mps 739 mmHg 85%

    Tomorrow, 18 October, Wednesday

    Time Temperature Precipitation Wind Pressure Humidity
    00:00 +13°C° 0 mm 2 mps 739 mmHg 86%
    01:00 +13°C° 0 mm 2 mps 739 mmHg 86%
    02:00 +13°C° 0 mm 2 mps 739 mmHg 87%
    03:00 +12°C° 0 mm 2 mps 738 mmHg 88%
    04:00 +12°C° 0 mm 2 mps 738 mmHg 89%
    05:00 +12°C° 0 mm 2 mps 738 mmHg 89%
    06:00 +12°C° 0 mm 2 mps 738 mmHg 90%
    07:00 +12°C° 0 mm 2 mps 738 mmHg 90%
    08:00 +14°C° 0 mm 2 mps 737 mmHg 84%
    09:00 +15°C° 0 mm 2 mps 737 mmHg 78%
    10:00 +17°C° 0 mm 3 mps 737 mmHg 72%
    11:00 +18°C° 0 mm 3 mps 737 mmHg 70%
    12:00 +18°C° 0 mm 3 mps 737 mmHg 67%
    13:00 +19°C° 0 mm 3 mps 736 mmHg 65%
    14:00 +19°C° 0 mm 2 mps 736 mmHg 67%
    15:00 +18°C° 0 mm 2 mps 736 mmHg 70%
    16:00 +19°C° 0 mm 1 mps 735 mmHg 73%
    17:00 +16°C° 0 mm 1 mps 735 mmHg 78%
    18:00 +15°C° 0 mm 1 mps 735 mmHg 83%
    19:00 +14°C° 0 mm 1 mps 735 mmHg 87%
    20:00 +13°C° 0 mm 1 mps 735 mmHg 88%
    21:00 +13°C° 0 mm 1 mps 735 mmHg 88%
    22:00 +13°C° 0 mm 1 mps 735 mmHg 89%
    23:00 +12°C° 0 mm 1 mps 735 mmHg 89%

    Day after tomorrow, 19 October, Thursday

    Time Temperature Precipitation Wind Pressure Humidity
    00:00 +12°C° 0 mm 1 mps 735 mmHg 90%
    01:00 +12°C° 0 mm 1 mps 735 mmHg 90%
    02:00 +11°C° 0 mm 1 mps 735 mmHg 90%
    03:00 +11°C° 0 mm 1 mps 735 mmHg 91%
    04:00 +11°C° 0 mm 1 mps 735 mmHg 91%
    05:00 +11°C° 0 mm 1 mps 735 mmHg 91%
    06:00 +11°C° 0 mm 1 mps 735 mmHg 91%
    07:00 +11°C° 0 mm 1 mps 735 mmHg 91%
    08:00 +13°C° 0 mm 1 mps 736 mmHg 84%
    09:00 +15°C° 0 mm 1 mps 736 mmHg 77%
    10:00 +18°C° 0 mm 1 mps 736 mmHg 70%
    11:00 +19°C° 0 mm 1 mps 736 mmHg 65%
    12:00 +20°C° 0 mm 1 mps 736 mmHg 61%
    13:00 +21°C° 0 mm 1 mps 736 mmHg 56%
    14:00 +20°C° 0 mm 1 mps 736 mmHg 59%
    15:00 +20°C° 0 mm 1 mps 736 mmHg 62%
    16:00 +17°C° 0 mm 0 mps 736 mmHg 66%
    17:00 +15°C° 0 mm 0 mps 736 mmHg 71%
    18:00 +14°C° 0 mm 0 mps 736 mmHg 75%
    19:00 +13°C° 0 mm 0 mps 736 mmHg 80%
    20:00 +12°C° 0 mm 0 mps 736 mmHg 81%
    21:00 +13°C° 0 mm 1 mps 737 mmHg 81%
    22:00 +13°C° 0 mm 1 mps 737 mmHg 82%
    23:00 +12°C° 0 mm 1 mps 737 mmHg 82%

    20 October, Friday

    Time Temperature Precipitation Wind Pressure Humidity
    00:00 +12°C° 0 mm 1 mps 737 mmHg 83%
    01:00 +12°C° 0 mm 1 mps 737 mmHg 83%
    02:00 +12°C° 0 mm 1 mps 737 mmHg 83%
    03:00 +11°C° 0 mm 1 mps 737 mmHg 83%
    04:00 +11°C° 0 mm 1 mps 736 mmHg 83%
    05:00 +11°C° 0 mm 1 mps 737 mmHg 83%
    06:00 +11°C° 0 mm 1 mps 737 mmHg 83%
    07:00 +11°C° 0 mm 1 mps 737 mmHg 83%
    08:00 +13°C° 0 mm 1 mps 737 mmHg 76%
    09:00 +15°C° 0 mm 2 mps 737 mmHg 69%
    10:00 +17°C° 0 mm 2 mps 737 mmHg 62%
    11:00 +18°C° 0 mm 2 mps 737 mmHg 59%
    12:00 +19°C° 0 mm 2 mps 737 mmHg 57%
    13:00 +20°C° 0 mm 2 mps 737 mmHg 54%
    14:00 +19°C° 0 mm 2 mps 737 mmHg 59%
    15:00 +18°C° 0 mm 2 mps 737 mmHg 63%
    16:00 +18°C° 0 mm 2 mps 737 mmHg 68%
    17:00 +16°C° 0 mm 2 mps 737 mmHg 73%
    18:00 +15°C° 0 mm 2 mps 737 mmHg 78%
    19:00 +14°C° 0 mm 2 mps 737 mmHg 82%
    20:00 +13°C° 0 mm 2 mps 737 mmHg 83%
    21:00 +13°C° 0 mm 2 mps 737 mmHg 84%
    22:00 +13°C° 0 mm 2 mps 737 mmHg 85%
    23:00 +13°C° 0 mm 2 mps 737 mmHg 85%

    21 October, Saturday

    Time Temperature Precipitation Wind Pressure Humidity
    00:00 +12°C° 0 mm 2 mps 737 mmHg 86%
    01:00 +12°C° 0 mm 2 mps 738 mmHg 86%
    02:00 +12°C° 0 mm 1 mps 737 mmHg 86%
    03:00 +12°C° 0 mm 1 mps 737 mmHg 86%
    04:00 +12°C° 0 mm 1 mps 737 mmHg 86%
    05:00 +12°C° 0 mm 2 mps 737 mmHg 86%
    06:00 +12°C° 0 mm 2 mps 737 mmHg 85%
    07:00 +12°C° 0 mm 2 mps 737 mmHg 85%
    08:00 +14°C° 0 mm 2 mps 737 mmHg 79%
    09:00 +15°C° 0 mm 2 mps 737 mmHg 73%
    10:00 +17°C° 0 mm 2 mps 737 mmHg 67%
    11:00 +18°C° 0 mm 3 mps 737 mmHg 63%
    12:00 +19°C° 0 mm 3 mps 737 mmHg 60%
    13:00 +20°C° 0 mm 3 mps 737 mmHg 57%
    14:00 +20°C° 0 mm 2 mps 736 mmHg 60%
    15:00 +19°C° 0 mm 2 mps 736 mmHg 64%
    16:00 +19°C° 0 mm 2 mps 736 mmHg 67%
    17:00 +18°C° 0 mm 2 mps 736 mmHg 70%
    18:00 +17°C° 0 mm 2 mps 736 mmHg 73%
    19:00 +16°C° 0 mm 2 mps 736 mmHg 75%
    20:00 +15°C° 0 mm 2 mps 736 mmHg 76%
    21:00 +15°C° 0 mm 1 mps 736 mmHg 77%
    22:00 +15°C° 0 mm 1 mps 735 mmHg 78%
    23:00 +15°C° 0 mm 1 mps 735 mmHg 78%

    22 October, Sunday

    Time Temperature Precipitation Wind Pressure Humidity
    00:00 +15°C° 0 mm 1 mps 735 mmHg 79%
    01:00 +14°C° 0 mm 1 mps 735 mmHg 79%
    02:00 +14°C° 0.1 mm 1 mps 735 mmHg 82%
    03:00 +14°C° 0.1 mm 1 mps 734 mmHg 84%
    04:00 +14°C° 0.1 mm 1 mps 734 mmHg 87%
    05:00 +14°C° 0.1 mm 1 mps 734 mmHg 88%
    06:00 +14°C° 0.1 mm 1 mps 734 mmHg 90%
    07:00 +14°C° 0.1 mm 1 mps 734 mmHg 92%
    08:00 +14°C° 0.4 mm 2 mps 734 mmHg 91%
    09:00 +13°C° 0.4 mm 3 mps 734 mmHg 90%
    10:00 +13°C° 0.4 mm 3 mps 735 mmHg 89%
    11:00 +13°C° 1.3 mm 4 mps 734 mmHg 89%
    12:00 +12°C° 1.3 mm 4 mps 734 mmHg 89%
    13:00 +10°C° 1.3 mm 5 mps 734 mmHg 88%
    14:00 +10°C° 0.6 mm 5 mps 735 mmHg 87%
    15:00 +10°C° 0.6 mm 5 mps 735 mmHg 87%
    16:00 +10°C° 0.6 mm 5 mps 735 mmHg 86%
    17:00 +10°C° 0.3 mm 4 mps 735 mmHg 85%
    18:00 +10°C° 0.3 mm 4 mps 735 mmHg 85%
    19:00 +8°C° 0.3 mm 4 mps 736 mmHg 85%
    20:00 +8°C° 0 mm 4 mps 736 mmHg 85%
    21:00 +8°C° 0 mm 4 mps 736 mmHg 84%
    22:00 +8°C° 0 mm 4 mps 736 mmHg 84%
    23:00 +7°C° 0 mm 4 mps 736 mmHg 84%
    Show more